Tracking 27107 objects as of 21-Mar-2023
HD Live streaming from Space Station
objects crossing your sky now

SL-8 DEB

Track SL-8 DEB now!
10-day predictions


NORAD ID: 21955
Int'l Code: 1991-009CF
Perigee: 1,519.6 km
Apogee: 1,783.6 km
Inclination: 74.3 °
Period: 119.2 minutes
Semi major axis: 8022 km
RCS: 0.0532 m2 (small)
Launch date: February 12, 1991
Source: Commonwealth of Independent States (former USSR) (CIS)
Launch site: PLESETSK MISSILE AND SPACE COMPLEX (PKMTR)

Note: This is SATELLITE DEBRIS
Your satellite tracking list
Your tracking list is empty




NASA's NSSDC Master Catalog

Two Line Element Set (TLE):
1 21955U 91009CF  23079.37970625  .00000101  00000-0  12322-2 0  9995
2 21955  74.3045  81.1851 0164545 282.8783 196.8225 12.08175470412188
Source of the keplerian elements: AFSPC